Palma de Mallorca, Spain

3:52 AM CET on February 26, 2017 (GMT +0100)
Palma De Mallorca

Weather History for LEPA - October, 2013

Change the Weather History Date:

Tuesday, October 22, 2013

  Actual Average Record
Temperature  
Mean Temperature 70 °F -  
Max Temperature 79 °F 66 °F 80 °F (2004)
Min Temperature 60 °F 48 °F 47 °F (2015)
Cooling Degree Days 4    
Growing Degree Days 20 (Base 50)    
Moisture  
Dew Point 66 °F    
Average Humidity 86    
Maximum Humidity 100    
Minimum Humidity 57    
Precipitation  
Precipitation 0.00 in 0.07 in - ()
Sea Level Pressure  
Sea Level Pressure 29.92 in    
Wind  
Wind Speed 4 mph ()    
Max Wind Speed 13 mph    
Max Gust Speed -    
Visibility 6.1 miles    
Events      
Averages and records for this station are not official NWS values.
T = Trace of Precipitation, MM = Missing Value Source: Averaged Metar Reports

Daily Weather History Graph

Daily Weather History Graph

Search for Another Location

Airport or City:

Trip Planner

Search our weather history database for the weather conditions in past years. The results will help you decide how hot, cold, wet, or windy it might be!

Date:

Astronomy

Oct. 22, 2013 Rise Set
Actual Time 8:06 AM CEST 7:00 PM CEST
Civil Twilight 7:39 AM CEST 7:27 PM CEST
Nautical Twilight 7:07 AM CEST 7:58 PM CEST
Astronomical Twilight 6:36 AM CEST 8:29 PM CEST
Moon 9:28 PM CEST (10/22) 11:20 AM CEST (10/22)
Length of Visible Light 11h 48m
Length of Day
10h 53m
Waning Gibbous, 88% of the Moon is Illuminated
Oct 22
Waning Gibbous
Oct 27
Last Quarter
Nov 3
New
Nov 10
First Quarter
Nov 17
Full

Hourly Weather History & Observations

Time (CEST) Temp. Dew Point Humidity Pressure Visibility Wind Dir Wind Speed Gust Speed Precip Events Conditions
12:00 AM 66.2 °F 64.4 °F 94% 30.01 in 6.2 mi ENE 2.3 mph - N/A   Partly Cloudy
12:30 AM 66.2 °F 64.4 °F 94% 29.98 in 6.2 mi NE 1.2 mph - N/A   Partly Cloudy
1:00 AM 66.2 °F 64.4 °F 94% 29.98 in 6.2 mi ENE 2.3 mph - N/A   Partly Cloudy
1:30 AM 68.0 °F 66.2 °F 94% 29.98 in - ENE 6.9 mph - N/A   Clear
2:00 AM 67 °F 66 °F 94% 29.98 in 7 mi NE 4.6 mph - -  
2:00 AM 68.0 °F 66.2 °F 94% 29.98 in - NE 8.1 mph - N/A   Clear
2:30 AM 68.0 °F 66.2 °F 94% 29.95 in 6.2 mi NE 8.1 mph - N/A   Partly Cloudy
3:00 AM 66.2 °F 64.4 °F 94% 29.95 in 6.2 mi NNE 3.5 mph - N/A   Partly Cloudy
3:30 AM 66.2 °F 64.4 °F 94% 29.95 in 6.2 mi NE 2.3 mph - N/A   Partly Cloudy
4:00 AM 64.4 °F 64.4 °F 100% 29.95 in 6.2 mi NE 5.8 mph - N/A   Partly Cloudy
4:30 AM 64.4 °F 62.6 °F 94% 29.92 in 6.2 mi NE 4.6 mph - N/A   Partly Cloudy
5:00 AM 62.6 °F 60.8 °F 94% 29.92 in 6.2 mi Variable 2.3 mph - N/A   Partly Cloudy
5:30 AM 62.6 °F 60.8 °F 94% 29.89 in 6.2 mi NNE 2.3 mph - N/A   Partly Cloudy
6:00 AM 62.6 °F 60.8 °F 94% 29.89 in 6.2 mi Variable 2.3 mph - N/A   Partly Cloudy
6:30 AM 62.6 °F 60.8 °F 94% 29.89 in 5.6 mi Variable 2.3 mph - N/A   Partly Cloudy
7:00 AM 62.6 °F 60.8 °F 94% 29.89 in 5.0 mi Variable 1.2 mph - N/A   Partly Cloudy
7:30 AM 62.6 °F 62.6 °F 100% 29.89 in 4.3 mi NNW 3.5 mph - N/A   Partly Cloudy
8:00 AM 62 °F 60 °F 92% 29.91 in 6 mi Calm Calm - -   Scattered Clouds
8:00 AM 62.6 °F 60.8 °F 94% 29.89 in 4.3 mi Variable 2.3 mph - N/A   Partly Cloudy
8:30 AM 62.6 °F 60.8 °F 94% 29.89 in 4.3 mi SE 1.2 mph - N/A   Partly Cloudy
9:00 AM 62.6 °F 60.8 °F 94% 29.89 in 3.7 mi Calm Calm - N/A   Partly Cloudy
9:24 AM 68.0 °F 66.2 °F 94% 29.92 in 2.5 mi ENE 2.3 mph - N/A   Partly Cloudy
9:30 AM 68.0 °F 66.2 °F 94% 29.92 in 2.5 mi ENE 1.2 mph - N/A   Partly Cloudy
10:00 AM 68.0 °F 66.2 °F 94% 29.92 in 5.0 mi Calm Calm - N/A   Partly Cloudy
10:30 AM 73.4 °F 68.0 °F 83% 29.92 in 5.0 mi Calm Calm - N/A   Partly Cloudy
11:00 AM 75.2 °F 68.0 °F 78% 29.92 in 6.2 mi SSW 3.5 mph - N/A   Partly Cloudy
11:30 AM 77.0 °F 69.8 °F 78% 29.95 in 6.2 mi SW 8.1 mph - N/A   Partly Cloudy
12:00 PM 77.0 °F 69.8 °F 78% 29.95 in 6.2 mi SW 10.4 mph - N/A   Partly Cloudy
12:30 PM 77.0 °F 69.8 °F 78% 29.95 in 6.2 mi SW 9.2 mph - N/A   Partly Cloudy
1:00 PM 78.8 °F 69.8 °F 74% 29.92 in 6.2 mi SW 10.4 mph - N/A   Partly Cloudy
1:30 PM 77.0 °F 69.8 °F 78% 29.92 in 6.2 mi SW 10.4 mph - N/A   Partly Cloudy
2:00 PM 79 °F 66 °F 57% 29.91 in 16 mi SW 12.7 mph - -   Scattered Clouds
2:00 PM 77.0 °F 68.0 °F 74% 29.89 in 6.2 mi SW 11.5 mph - N/A   Partly Cloudy
2:30 PM 77.0 °F 68.0 °F 74% 29.89 in 6.2 mi SW 10.4 mph - N/A   Partly Cloudy
3:00 PM 78.8 °F 68.0 °F 69% 29.89 in 6.2 mi SW 10.4 mph - N/A   Partly Cloudy
3:30 PM 77.0 °F 68.0 °F 74% 29.89 in 6.2 mi SW 11.5 mph - N/A   Partly Cloudy
4:00 PM 77.0 °F 68.0 °F 74% 29.89 in 6.2 mi SW 8.1 mph - N/A   Partly Cloudy
4:30 PM 77.0 °F 68.0 °F 74% 29.89 in 6.2 mi SW 8.1 mph - N/A   Partly Cloudy
5:00 PM 77.0 °F 68.0 °F 74% 29.89 in 6.2 mi SW 4.6 mph - N/A   Partly Cloudy
5:30 PM 75.2 °F 68.0 °F 78% 29.89 in 6.2 mi WSW 10.4 mph - N/A   Partly Cloudy
6:00 PM 75.2 °F 68.0 °F 78% 29.89 in 6.2 mi SW 8.1 mph - N/A   Partly Cloudy
6:30 PM 75.2 °F 68.0 °F 78% 29.89 in 6.2 mi WSW 5.8 mph - N/A   Scattered Clouds
7:00 PM 73.4 °F 68.0 °F 83% 29.89 in 6.2 mi SW 4.6 mph - N/A   Mostly Cloudy
7:30 PM 73.4 °F 68.0 °F 83% 29.89 in 6.2 mi Variable 2.3 mph - N/A   Mostly Cloudy
8:00 PM 73 °F 67 °F 75% 29.92 in 12 mi WSW 5.8 mph - -   Partly Cloudy
8:00 PM 73.4 °F 68.0 °F 83% 29.92 in 6.2 mi SW 2.3 mph - N/A   Scattered Clouds
8:30 PM 73.4 °F 68.0 °F 83% 29.92 in 6.2 mi SSE 1.2 mph - N/A   Scattered Clouds
9:00 PM 71.6 °F 66.2 °F 83% 29.92 in 6.2 mi ESE 1.2 mph - N/A   Scattered Clouds
9:30 PM 71.6 °F 66.2 °F 83% 29.92 in 6.2 mi Calm Calm - N/A   Scattered Clouds
10:00 PM 69.8 °F 66.2 °F 88% 29.92 in 6.2 mi Calm Calm - N/A   Scattered Clouds
10:30 PM 68.0 °F 64.4 °F 88% 29.92 in 6.2 mi Calm Calm - N/A   Scattered Clouds
11:00 PM 68.0 °F 66.2 °F 94% 29.92 in 6.2 mi Calm Calm - N/A   Scattered Clouds
11:30 PM 68.0 °F 64.4 °F 88% 29.92 in 6.2 mi Variable 1.2 mph - N/A   Scattered Clouds